Weather Roundup
Issued by NWS Chicago, IL

Home | Current Version | Previous Version | Text Only | Print | Product List | Glossary Off
Versions: 1 2 3 4 5 6 7 8 9 10 11 12 13 14 15 16 17 18 19 20 21 22 23 24 25 26 27 28 29 30 31 32 33 34 35 36 37 38 39 40 41 42 43 44 45 46 47 48 49 50

000
NZUS59 KLOT 251808
HRRLOT

CHICAGO AREA WEATHER ROUNDUP
NATIONAL WEATHER SERVICE CHICAGO/ROMEOVILLE IL
1200 PM CST SUN FEB 25 2018

NOTE: "FAIR" INDICATES FEW OR NO CLOUDS BELOW 12,000 FEET WITH NO
SIGNIFICANT WEATHER AND/OR OBSTRUCTIONS TO VISIBILITY.

* THESE STATIONS ARE NOT UNDER NWS QUALITY CONTROL. THEY ALSO MAY NOT
  REPORT WEATHER SUCH AS PRECIPITATION OR FOG.

ILZ005-006-012>014-019>023-251900-
NORTHEAST ILLINOIS

CITY           SKY/WX    TMP DP  RH WIND       PRES   REMARKS
OHARE            N/A     39  24  55 W21G26    29.91R
6HR MIN TEMP:  34; 6HR MAX TEMP:  40;

MIDWAY           N/A     41  25  53 W17G24    29.94R
6HR MIN TEMP:  35; 6HR MAX TEMP:  41;

AURORA           N/A     39  27  62 SW15      29.94R
6HR MIN TEMP:  34; 6HR MAX TEMP:  40;

LANSING*         N/A     41  28  60 SW17G29   29.96R
JOLIET*          N/A     42  26  53 W16G22    29.97R
WAUKEGAN         N/A     39  22  50 W12G28    29.85R
6HR MIN TEMP:  32; 6HR MAX TEMP:  40;

DUPAGE AIRPORT   N/A     38  25  59 W16G28    29.92R
6HR MIN TEMP:  33; 6HR MAX TEMP:  39;

WHEELING         N/A     40  24  53 SW14G24   29.91R
6HR MIN TEMP:  34; 6HR MAX TEMP:  40;

KANKAKEE*      PTSUNNY   40  29  64 SW20G25   30.02S
MORRIS*          N/A     41  27  59 SW14G23   29.97R
LEWIS AIRPORT*   N/A     40  29  63 SW20G26   29.95S
NORTHERLY ISL    N/A     39  20  46 SW14        N/A
$$

WIZ051-052-058>065-066-070>072-251900-
SOUTHEAST WISCONSIN

CITY           SKY/WX    TMP DP  RH WIND       PRES   REMARKS
MILWAUKEE        N/A     39  19  44 W18G41    29.80S
6HR MIN TEMP:  32; 6HR MAX TEMP:  39;

KENOSHA*         N/A     39  23  52 W24G36    29.84R
RACINE*          N/A     39  22  50 SW16G36   29.84R
BURLINGTON       N/A     36  24  61 W16G24    29.84F
WAUKESHA       SUNNY     34  19  55 SW22G28   29.81S WCI  22
WEST BEND        N/A     34  21  60 W15G35    29.74F WCI  24
$$

INZ001>003-010>013-019-020-251900-
NORTHWEST INDIANA

CITY           SKY/WX    TMP DP  RH WIND       PRES   REMARKS
GARY*          MOSUNNY   43  23  45 W23G35    29.96R
MICHIGAN CITY* NOT AVBL
RENSSELAER*    NOT AVBL
VALPARAISO       N/A     43  27  53 SW23G32   29.97R
$$

LMZ740>746-251900-
SOUTHERN LAKE MICHIGAN

STATION/POSITION TIME  SKY/WX   TEMP WIND        PRES    VSBY
                                AIR  DIR/SP/G
                 (UTC)          (F)  (DEG/KT/KT) (MB)    (MI)
HARRISON CRIB    1740            38  250/ 21/ 23   N/A
BURNHAM HARBOR   1800            39  220/ 13/ 18   N/A
CALUMET HARBOR   1742            39  220/ 11/ 20 1013.3R
BURNS HARBOR     1740            39  240/ 22/ 26 1014.9R
MICHIGAN CITY    1740            37  230/ 22/ 24   N/A
$$

ABBREVIATIONS USED IN REMARKS
   TC - TEMPERATURE IN CELSIUS
  WCI - WIND CHILL INDEX
   HX - HEAT INDEX
  VSB - VISIBILITY
$$




USA.gov is the U.S. government's official web portal to all federal, state and local government web resources and services.